| time (UTC) | temp F | wind direction | speed knots | gust knots | rain 1hr in | rain 24hr in | rain mn in | humidity % | barometer mb |
| 20260510222927 | 77 | 95 | 3.5 | 7.8 | 0.00 | 0.00 | 0.00 | 44 | 1015.9 |
| 20260510222425 | 77 | 77 | 0.9 | 8.7 | 0.00 | 0.00 | 0.00 | 44 | 1016.0 |
| 20260510221920 | 77 | 27 | 7.8 | 10.4 | 0.00 | 0.00 | 0.00 | 44 | 1016.2 |
| 20260510221417 | 76 | 50 | 6.1 | 10.4 | 0.00 | 0.00 | 0.00 | 46 | 1016.3 |
| 20260510220913 | 76 | 23 | 7.8 | 12.2 | 0.00 | 0.00 | 0.00 | 46 | 1016.0 |
| 20260510220409 | 77 | 51 | 11.3 | 15.6 | 0.00 | 0.00 | 0.00 | 45 | 1016.0 |
| 20260510215905 | 75 | 8 | 8.7 | 15.6 | 0.00 | 0.00 | 0.00 | 48 | 1015.5 |
| 20260510215403 | 74 | 36 | 10.4 | 14.8 | 0.00 | 0.00 | 0.00 | 49 | 1015.8 |
| 20260510214901 | 73 | 49 | 8.7 | 11.3 | 0.00 | 0.00 | 0.00 | 49 | 1015.9 |
| 20260510214357 | 73 | 53 | 7.8 | 11.3 | 0.00 | 0.00 | 0.00 | 49 | 1016.2 |
| 20260510213854 | 73 | 48 | 7.8 | 13.0 | 0.00 | 0.00 | 0.00 | 49 | 1016.6 |
| 20260510213350 | 73 | 17 | 11.3 | 14.8 | 0.00 | 0.00 | 0.00 | 49 | 1016.5 |
| 20260510212847 | 73 | 18 | 10.4 | 14.8 | 0.00 | 0.00 | 0.00 | 49 | 1016.5 |
| 20260510212344 | 73 | 64 | 13.0 | 14.8 | 0.00 | 0.00 | 0.00 | 49 | 1016.3 |
| 20260510211841 | 73 | 44 | 9.6 | 15.6 | 0.00 | 0.00 | 0.00 | 49 | 1016.3 |
| 20260510211337 | 73 | 54 | 9.6 | 19.1 | 0.00 | 0.00 | 0.00 | 50 | 1016.5 |
| 20260510210833 | 73 | 28 | 13.9 | 18.2 | 0.00 | 0.00 | 0.00 | 49 | 1016.8 |
| 20260510210328 | 73 | 33 | 11.3 | 20.9 | 0.00 | 0.00 | 0.00 | 49 | 1016.6 |
| 20260510205827 | 72 | 41 | 22.6 | 24.3 | 0.00 | 0.00 | 0.00 | 50 | 1015.8 |
| 20260510205323 | 73 | 37 | 10.4 | 20.0 | 0.00 | 0.00 | 0.00 | 49 | 1016.1 |
| 20260510204820 | 73 | 30 | 13.0 | 19.1 | 0.00 | 0.00 | 0.00 | 48 | 1016.3 |
| 20260510204316 | 74 | 3 | 12.2 | 16.5 | 0.00 | 0.00 | 0.00 | 48 | 1016.3 |
| 20260510203812 | 76 | 355 | 12.2 | 15.6 | 0.00 | 0.00 | 0.00 | 45 | 1016.8 |
| 20260510203310 | 76 | 5 | 2.6 | 15.6 | 0.00 | 0.00 | 0.00 | 45 | 1016.9 |
| 20260510202810 | 76 | 0 | 9.6 | 12.2 | 0.00 | 0.00 | 0.00 | 45 | 1016.7 |
| 20260510202307 | 75 | 22 | 6.1 | 19.1 | 0.00 | 0.00 | 0.00 | 46 | 1016.8 |
| 20260510201803 | 77 | 26 | 11.3 | 17.4 | 0.00 | 0.00 | 0.00 | 44 | 1016.9 |
| 20260510201300 | 78 | 24 | 17.4 | 17.4 | 0.00 | 0.00 | 0.00 | 43 | 1016.9 |
| 20260510200756 | 78 | 30 | 11.3 | 17.4 | 0.00 | 0.00 | 0.00 | 43 | 1016.7 |
| 20260510200254 | 78 | 355 | 11.3 | 22.6 | 0.00 | 0.00 | 0.00 | 43 | 1016.6 |
| 20260510195750 | 78 | 23 | 7.8 | 17.4 | 0.00 | 0.00 | 0.00 | 43 | 1016.5 |
| 20260510195247 | 78 | 25 | 15.6 | 16.5 | 0.00 | 0.00 | 0.00 | 43 | 1016.7 |
| 20260510194746 | 78 | 40 | 8.7 | 18.2 | 0.00 | 0.00 | 0.00 | 43 | 1016.3 |
| 20260510194244 | 79 | 21 | 12.2 | 18.2 | 0.00 | 0.00 | 0.00 | 42 | 1016.3 |
| 20260510193739 | 78 | 36 | 4.3 | 19.1 | 0.00 | 0.00 | 0.00 | 43 | 1016.3 |
| 20260510193234 | 77 | 38 | 10.4 | 14.8 | 0.00 | 0.00 | 0.00 | 44 | 1016.2 |
| 20260510192730 | 79 | 42 | 9.6 | 15.6 | 0.00 | 0.00 | 0.00 | 43 | 1016.0 |
| 20260510192226 | 78 | 32 | 13.0 | 17.4 | 0.00 | 0.00 | 0.00 | 44 | 1016.2 |
| 20260510191722 | 77 | 28 | 9.6 | 17.4 | 0.00 | 0.00 | 0.00 | 45 | 1015.9 |
| 20260510191218 | 77 | 52 | 14.8 | 22.6 | 0.00 | 0.00 | 0.00 | 44 | 1015.9 |
| 20260510190716 | 77 | 63 | 9.6 | 20.0 | 0.00 | 0.00 | 0.00 | 44 | 1016.0 |
| 20260510190213 | 77 | 77 | 10.4 | 18.2 | 0.00 | 0.00 | 0.00 | 45 | 1015.8 |
| 20260510185710 | 77 | 72 | 5.2 | 14.8 | 0.00 | 0.00 | 0.00 | 44 | 1015.6 |
| 20260510185208 | 78 | 29 | 8.7 | 18.2 | 0.00 | 0.00 | 0.00 | 44 | 1015.9 |
| 20260510184704 | 77 | 57 | 2.6 | 19.1 | 0.00 | 0.00 | 0.00 | 45 | 1015.7 |
| 20260510184201 | 77 | 41 | 13.0 | 18.2 | 0.00 | 0.00 | 0.00 | 45 | 1015.8 |
| 20260510183655 | 76 | 77 | 5.2 | 14.8 | 0.00 | 0.00 | 0.00 | 46 | 1016.0 |
| 20260510183150 | 75 | 29 | 11.3 | 23.5 | 0.00 | 0.00 | 0.00 | 47 | 1016.2 |
| 20260510182648 | 76 | 55 | 10.4 | 17.4 | 0.00 | 0.00 | 0.00 | 46 | 1016.0 |
| 20260510182143 | 76 | 37 | 13.0 | 19.1 | 0.00 | 0.00 | 0.00 | 46 | 1015.7 |
| 20260510181641 | 76 | 68 | 9.6 | 17.4 | 0.00 | 0.00 | 0.00 | 46 | 1015.8 |
| 20260510181137 | 75 | 21 | 12.2 | 20.0 | 0.00 | 0.00 | 0.00 | 48 | 1015.9 |
| 20260510180633 | 75 | 31 | 6.1 | 19.1 | 0.00 | 0.00 | 0.00 | 47 | 1015.7 |
| 20260510180131 | 74 | 48 | 13.0 | 23.5 | 0.00 | 0.00 | 0.00 | 49 | 1015.1 |
| 20260510175626 | 72 | 35 | 7.8 | 22.6 | 0.00 | 0.00 | 0.00 | 51 | 1014.9 |
| 20260510175122 | 72 | 31 | 15.6 | 20.9 | 0.00 | 0.00 | 0.00 | 51 | 1015.5 |
| 20260510174620 | 73 | 43 | 5.2 | 20.0 | 0.00 | 0.00 | 0.00 | 51 | 1016.1 |
| 20260510174118 | 72 | 46 | 9.6 | 21.7 | 0.00 | 0.00 | 0.00 | 52 | 1015.8 |
| 20260510173613 | 75 | 1 | 10.4 | 21.7 | 0.00 | 0.00 | 0.00 | 49 | 1015.8 |
| 20260510173110 | 74 | 40 | 10.4 | 20.9 | 0.00 | 0.00 | 0.00 | 50 | 1015.6 |
| 20260510172605 | 76 | 20 | 12.2 | 22.6 | 0.00 | 0.00 | 0.00 | 48 | 1016.0 |
| 20260510172102 | 74 | 30 | 6.1 | 20.9 | 0.00 | 0.00 | 0.00 | 50 | 1016.0 |
| 20260510171558 | 73 | 25 | 9.6 | 19.1 | 0.00 | 0.00 | 0.00 | 51 | 1016.0 |
| 20260510171056 | 74 | 7 | 15.6 | 18.2 | 0.00 | 0.00 | 0.00 | 51 | 1015.9 |
| 20260510170552 | 73 | 6 | 11.3 | 20.9 | 0.00 | 0.00 | 0.00 | 51 | 1015.8 |
| 20260510170049 | 73 | 21 | 14.8 | 17.4 | 0.00 | 0.00 | 0.00 | 51 | 1015.9 |
| 20260510165544 | 73 | 29 | 10.4 | 22.6 | 0.00 | 0.00 | 0.00 | 51 | 1015.7 |
| 20260510165041 | 72 | 29 | 14.8 | 25.2 | 0.00 | 0.00 | 0.00 | 51 | 1015.3 |
| 20260510164538 | 72 | 3 | 9.6 | 22.6 | 0.00 | 0.00 | 0.00 | 52 | 1015.6 |
| 20260510164035 | 72 | 4 | 19.1 | 25.2 | 0.00 | 0.00 | 0.00 | 52 | 1015.4 |
| 20260510163530 | 72 | 17 | 12.2 | 26.9 | 0.00 | 0.00 | 0.00 | 52 | 1015.5 |
| 20260510163026 | 72 | 13 | 17.4 | 20.0 | 0.00 | 0.00 | 0.00 | 51 | 1015.7 |
| 20260510162521 | 72 | 14 | 12.2 | 20.0 | 0.00 | 0.00 | 0.00 | 52 | 1015.4 |
| 20260510162013 | 72 | 7 | 15.6 | 20.9 | 0.00 | 0.00 | 0.00 | 52 | 1015.3 |
| 20260510161509 | 71 | 21 | 13.9 | 23.5 | 0.00 | 0.00 | 0.00 | 52 | 1015.1 |
| 20260510161006 | 71 | 28 | 12.2 | 17.4 | 0.00 | 0.00 | 0.00 | 52 | 1015.4 |
| 20260510160503 | 70 | 5 | 9.6 | 23.5 | 0.00 | 0.00 | 0.00 | 53 | 1014.5 |
| 20260510160001 | 70 | 46 | 16.5 | 22.6 | 0.00 | 0.00 | 0.00 | 53 | 1014.7 |
| 20260510155459 | 69 | 16 | 12.2 | 26.9 | 0.00 | 0.00 | 0.00 | 54 | 1014.4 |
| 20260510154955 | 69 | 16 | 16.5 | 31.3 | 0.00 | 0.00 | 0.00 | 53 | 1013.9 |
| 20260510154451 | 71 | 46 | 17.4 | 32.2 | 0.00 | 0.00 | 0.00 | 51 | 1013.9 |
| 20260510153950 | 70 | 40 | 14.8 | 29.5 | 0.00 | 0.00 | 0.00 | 50 | 1014.7 |
| 20260510153446 | 70 | 30 | 19.1 | 26.9 | 0.00 | 0.00 | 0.00 | 50 | 1015.4 |
| 20260510152943 | 69 | 18 | 16.5 | 28.7 | 0.00 | 0.00 | 0.00 | 51 | 1015.3 |
| 20260510152441 | 70 | 25 | 12.2 | 22.6 | 0.00 | 0.00 | 0.00 | 50 | 1015.5 |
| 20260510151937 | 70 | 2 | 12.2 | 24.3 | 0.00 | 0.00 | 0.00 | 49 | 1015.4 |
| 20260510151434 | 69 | 354 | 5.2 | 25.2 | 0.00 | 0.00 | 0.00 | 51 | 1014.9 |
| 20260510150930 | 68 | 13 | 20.0 | 25.2 | 0.00 | 0.00 | 0.00 | 53 | 1014.5 |
| 20260510150426 | 69 | 8 | 23.5 | 29.5 | 0.00 | 0.00 | 0.00 | 50 | 1014.6 |
| 20260510145922 | 70 | 17 | 23.5 | 27.8 | 0.00 | 0.00 | 0.00 | 50 | 1014.2 |
| 20260510145419 | 69 | 23 | 20.0 | 27.8 | 0.00 | 0.00 | 0.00 | 49 | 1013.9 |
| 20260510144915 | 69 | 5 | 26.9 | 29.5 | 0.00 | 0.00 | 0.00 | 48 | 1013.8 |
| 20260510144412 | 69 | 349 | 10.4 | 32.2 | 0.00 | 0.00 | 0.00 | 49 | 1013.6 |
| 20260510143907 | 68 | 23 | 15.6 | 29.5 | 0.00 | 0.00 | 0.00 | 50 | 1013.5 |
| 20260510143403 | 69 | 28 | 23.5 | 31.3 | 0.00 | 0.00 | 0.00 | 49 | 1013.2 |
| 20260510142900 | 69 | 6 | 13.9 | 28.7 | 0.00 | 0.00 | 0.00 | 48 | 1013.0 |
| 20260510142357 | 70 | 8 | 26.1 | 38.2 | 0.00 | 0.00 | 0.00 | 48 | 1012.9 |
| 20260510141853 | 70 | 31 | 12.2 | 27.8 | 0.00 | 0.00 | 0.00 | 47 | 1012.6 |
| 20260510141351 | 69 | 8 | 20.9 | 31.3 | 0.00 | 0.00 | 0.00 | 47 | 1012.2 |
| 20260510140848 | 71 | 20 | 18.2 | 32.2 | 0.00 | 0.00 | 0.00 | 46 | 1011.9 |
| 20260510140344 | 71 | 6 | 13.0 | 33.0 | 0.00 | 0.00 | 0.00 | 46 | 1011.3 |
| 20260510135837 | 72 | 44 | 20.9 | 27.8 | 0.00 | 0.00 | 0.00 | 48 | 1011.6 |
| 20260510135333 | 72 | 19 | 17.4 | 31.3 | 0.00 | 0.00 | 0.00 | 50 | 1012.0 |
| 20260510134831 | 72 | 18 | 18.2 | 31.3 | 0.00 | 0.00 | 0.00 | 52 | 1011.5 |
| 20260510134328 | 72 | 356 | 22.6 | 32.2 | 0.00 | 0.00 | 0.00 | 50 | 1011.3 |
| 20260510133824 | 72 | 22 | 20.9 | 26.1 | 0.00 | 0.00 | 0.00 | 46 | 1011.0 |
| 20260510133320 | 72 | 6 | 26.1 | 29.5 | 0.00 | 0.00 | 0.00 | 43 | 1011.1 |
| 20260510132816 | 71 | 19 | 6.1 | 30.4 | 0.00 | 0.00 | 0.00 | 40 | 1010.7 |
| 20260510132314 | 71 | 358 | 26.1 | 26.1 | 0.00 | 0.00 | 0.00 | 39 | 1010.2 |
| 20260510131810 | 71 | 22 | 7.8 | 25.2 | 0.00 | 0.00 | 0.00 | 36 | 1010.2 |
| 20260510131308 | 71 | 2 | 14.8 | 20.9 | 0.00 | 0.00 | 0.00 | 34 | 1010.1 |
| 20260510130805 | 71 | 14 | 13.0 | 20.9 | 0.00 | 0.00 | 0.00 | 33 | 1010.0 |
| 20260510130302 | 71 | 7 | 16.5 | 20.9 | 0.00 | 0.00 | 0.00 | 33 | 1009.9 |
| 20260510125758 | 71 | 352 | 12.2 | 20.0 | 0.00 | 0.00 | 0.00 | 32 | 1009.7 |
| 20260510125254 | 69 | 29 | 7.8 | 14.8 | 0.00 | 0.00 | 0.00 | 34 | 1009.5 |
| 20260510124751 | 65 | 0 | 6.1 | 8.7 | 0.00 | 0.00 | 0.00 | 41 | 1009.5 |
| 20260510124248 | 64 | 11 | 3.5 | 4.3 | 0.00 | 0.00 | 0.00 | 43 | 1009.2 |
| 20260510123743 | 64 | 325 | 0.0 | 0.0 | 0.00 | 0.00 | 0.00 | 42 | 1009.2 |
| 20260510123240 | 62 | 350 | 2.6 | 2.6 | 0.00 | 0.00 | 0.00 | 43 | 1008.7 |
| 20260510122736 | 63 | 6 | 2.6 | 4.3 | 0.00 | 0.00 | 0.00 | 41 | 1008.6 |
| 20260510122232 | 60 | 173 | 0.0 | 0.9 | 0.00 | 0.00 | 0.00 | 44 | 1008.5 |
| 20260510121728 | 60 | 90 | 0.0 | 0.0 | 0.00 | 0.00 | 0.00 | 46 | 1008.4 |
| 20260510121226 | 59 | 90 | 0.0 | 0.9 | 0.00 | 0.00 | 0.00 | 47 | 1008.4 |
| 20260510120724 | 59 | 55 | 0.0 | 2.6 | 0.00 | 0.00 | 0.00 | 48 | 1008.3 |
| 20260510120220 | 60 | 354 | 0.0 | 0.9 | 0.00 | 0.00 | 0.00 | 48 | 1008.2 |
| 20260510115716 | 62 | 40 | 0.0 | 1.7 | 0.00 | 0.00 | 0.00 | 44 | 1008.0 |
| 20260510115214 | 62 | 270 | 0.0 | 2.6 | 0.00 | 0.00 | 0.00 | 44 | 1007.9 |
| 20260510114709 | 60 | 195 | 0.0 | 1.7 | 0.00 | 0.00 | 0.00 | 46 | 1007.7 |
| 20260510114206 | 59 | 90 | 0.0 | 0.9 | 0.00 | 0.00 | 0.00 | 48 | 1007.9 |
| 20260510113701 | 59 | 0 | 0.0 | 3.5 | 0.00 | 0.00 | 0.00 | 51 | 1007.8 |
| 20260510113159 | 59 | 23 | 2.6 | 2.6 | 0.00 | 0.00 | 0.00 | 51 | 1007.5 |
| 20260510112655 | 59 | 75 | 0.0 | 0.9 | 0.00 | 0.00 | 0.00 | 51 | 1007.6 |
| 20260510112152 | 59 | 114 | 0.0 | 1.7 | 0.00 | 0.00 | 0.00 | 50 | 1007.6 |
| 20260510111648 | 59 | 54 | 0.0 | 1.7 | 0.00 | 0.00 | 0.00 | 50 | 1007.6 |
| 20260510111145 | 58 | 29 | 1.7 | 3.5 | 0.00 | 0.00 | 0.00 | 51 | 1007.8 |
| 20260510110639 | 59 | 90 | 0.0 | 3.5 | 0.00 | 0.00 | 0.00 | 49 | 1007.5 |
| 20260510110137 | 61 | 8 | 0.0 | 2.6 | 0.00 | 0.00 | 0.00 | 45 | 1007.3 |
| 20260510105633 | 61 | 241 | 0.0 | 0.0 | 0.00 | 0.00 | 0.00 | 45 | 1007.6 |
| 20260510105126 | 61 | 187 | 0.0 | 3.5 | 0.00 | 0.00 | 0.00 | 45 | 1007.4 |
| 20260510104624 | 61 | 5 | 2.6 | 4.3 | 0.00 | 0.00 | 0.00 | 46 | 1007.4 |
| 20260510104120 | 60 | 90 | 0.0 | 1.7 | 0.00 | 0.00 | 0.00 | 47 | 1006.9 |
| 20260510103617 | 59 | 66 | 0.9 | 1.7 | 0.00 | 0.00 | 0.00 | 51 | 1007.2 |
| 20260510103113 | 60 | 5 | 2.6 | 3.5 | 0.00 | 0.00 | 0.00 | 50 | 1007.2 |
| 20260510102609 | 61 | 8 | 0.0 | 0.9 | 0.00 | 0.00 | 0.00 | 48 | 1007.1 |
| 20260510102105 | 61 | 3 | 1.7 | 1.7 | 0.00 | 0.00 | 0.00 | 47 | 1006.8 |
| 20260510101603 | 62 | 0 | 0.0 | 2.6 | 0.00 | 0.00 | 0.00 | 44 | 1006.9 |
| 20260510101101 | 64 | 237 | 1.7 | 1.7 | 0.00 | 0.00 | 0.00 | 42 | 1006.8 |
| 20260510100556 | 64 | 195 | 0.0 | 2.6 | 0.00 | 0.00 | 0.00 | 42 | 1006.7 |
| 20260510100054 | 63 | 159 | 0.0 | 1.7 | 0.00 | 0.00 | 0.00 | 41 | 1006.7 |
| 20260510095550 | 63 | 180 | 0.0 | 1.7 | 0.00 | 0.00 | 0.00 | 41 | 1006.7 |
| 20260510095049 | 66 | 90 | 0.0 | 0.9 | 0.00 | 0.00 | 0.00 | 39 | 1006.6 |
| 20260510094544 | 68 | 172 | 0.0 | 0.0 | 0.00 | 0.00 | 0.00 | 33 | 1006.5 |
| 20260510094040 | 69 | 126 | 0.0 | 1.7 | 0.00 | 0.00 | 0.00 | 31 | 1006.3 |
| 20260510093536 | 69 | 174 | 0.9 | 3.5 | 0.00 | 0.00 | 0.00 | 30 | 1006.4 |
| 20260510093033 | 69 | 237 | 1.7 | 2.6 | 0.00 | 0.00 | 0.00 | 30 | 1006.5 |
| 20260510092530 | 70 | 157 | 0.0 | 1.7 | 0.00 | 0.00 | 0.00 | 30 | 1006.3 |
| 20260510092030 | 70 | 180 | 0.0 | 2.6 | 0.00 | 0.00 | 0.00 | 28 | 1006.3 |
| 20260510091527 | 69 | 191 | 0.0 | 1.7 | 0.00 | 0.00 | 0.00 | 31 | 1006.5 |
| 20260510091022 | 68 | 154 | 2.6 | 2.6 | 0.00 | 0.00 | 0.00 | 33 | 1006.8 |
| 20260510090520 | 68 | 188 | 0.0 | 4.3 | 0.00 | 0.00 | 0.00 | 32 | 1006.4 |
| 20260510090015 | 66 | 220 | 1.7 | 1.7 | 0.00 | 0.00 | 0.00 | 36 | 1006.7 |
| 20260510085510 | 66 | 289 | 0.0 | 1.7 | 0.00 | 0.00 | 0.00 | 37 | 1006.9 |
| 20260510085006 | 65 | 6 | 0.0 | 0.9 | 0.00 | 0.00 | 0.00 | 39 | 1006.5 |
| 20260510084503 | 65 | 294 | 0.0 | 2.6 | 0.00 | 0.00 | 0.00 | 36 | 1006.7 |
| 20260510084000 | 65 | 311 | 0.0 | 3.5 | 0.00 | 0.00 | 0.00 | 39 | 1006.4 |
| 20260510083456 | 65 | 0 | 0.0 | 0.0 | 0.00 | 0.00 | 0.00 | 37 | 1006.3 |
| 20260510082951 | 65 | 14 | 0.9 | 2.6 | 0.00 | 0.00 | 0.00 | 37 | 1006.6 |
| 20260510082450 | 66 | 0 | 0.0 | 0.9 | 0.00 | 0.00 | 0.00 | 35 | 1006.2 |
| 20260510081949 | 67 | 157 | 0.0 | 1.7 | 0.00 | 0.00 | 0.00 | 34 | 1006.4 |
| 20260510081445 | 66 | 36 | 0.0 | 1.7 | 0.00 | 0.00 | 0.00 | 35 | 1006.6 |
| 20260510080941 | 67 | 21 | 1.7 | 2.6 | 0.00 | 0.00 | 0.00 | 36 | 1006.5 |
| 20260510080440 | 66 | 25 | 2.6 | 4.3 | 0.00 | 0.00 | 0.00 | 35 | 1006.8 |
| 20260510075937 | 66 | 345 | 1.7 | 1.7 | 0.00 | 0.00 | 0.00 | 35 | 1006.6 |
| 20260510075435 | 66 | 37 | 1.7 | 2.6 | 0.00 | 0.00 | 0.00 | 36 | 1006.8 |
| 20260510074931 | 67 | 32 | 2.6 | 2.6 | 0.00 | 0.00 | 0.00 | 34 | 1006.8 |
| 20260510074429 | 68 | 145 | 0.0 | 0.9 | 0.00 | 0.00 | 0.00 | 33 | 1006.6 |
| 20260510073925 | 68 | 94 | 2.6 | 2.6 | 0.00 | 0.00 | 0.00 | 34 | 1006.7 |
| 20260510073420 | 68 | 41 | 0.0 | 2.6 | 0.00 | 0.00 | 0.00 | 33 | 1006.9 |
| 20260510072917 | 68 | 38 | 1.7 | 3.5 | 0.00 | 0.00 | 0.00 | 34 | 1006.9 |
| 20260510072414 | 68 | 49 | 5.2 | 5.2 | 0.00 | 0.00 | 0.00 | 35 | 1007.4 |
| 20260510071909 | 67 | 53 | 2.6 | 4.3 | 0.00 | 0.00 | 0.00 | 35 | 1007.4 |
| 20260510071406 | 67 | 22 | 5.2 | 6.1 | 0.00 | 0.00 | 0.00 | 36 | 1007.4 |
| 20260510070905 | 67 | 17 | 4.3 | 4.3 | 0.00 | 0.00 | 0.00 | 36 | 1006.8 |
| 20260510070401 | 68 | 27 | 5.2 | 7.0 | 0.00 | 0.00 | 0.00 | 34 | 1006.8 |
| 20260510065856 | 68 | 36 | 2.6 | 4.3 | 0.00 | 0.00 | 0.00 | 33 | 1006.5 |
| 20260510065353 | 72 | 353 | 0.9 | 2.6 | 0.00 | 0.00 | 0.00 | 25 | 1006.3 |
| 20260510064850 | 72 | 81 | 0.0 | 0.9 | 0.00 | 0.00 | 0.00 | 24 | 1006.4 |
| 20260510064348 | 72 | 352 | 0.0 | 1.7 | 0.00 | 0.00 | 0.00 | 25 | 1006.6 |
| 20260510063844 | 71 | 286 | 0.0 | 0.0 | 0.00 | 0.00 | 0.00 | 26 | 1006.4 |
| 20260510063340 | 72 | 286 | 0.0 | 0.0 | 0.00 | 0.00 | 0.00 | 26 | 1006.7 |
| 20260510062837 | 74 | 0 | 0.0 | 2.6 | 0.00 | 0.00 | 0.00 | 23 | 1006.4 |
| 20260510062332 | 73 | 354 | 2.6 | 3.5 | 0.00 | 0.00 | 0.00 | 24 | 1006.6 |
| 20260510061828 | 71 | 21 | 1.7 | 3.5 | 0.00 | 0.00 | 0.00 | 26 | 1006.6 |
| 20260510061325 | 72 | 261 | 0.0 | 0.0 | 0.00 | 0.00 | 0.00 | 26 | 1006.6 |
| 20260510060821 | 72 | 14 | 1.7 | 1.7 | 0.00 | 0.00 | 0.00 | 25 | 1006.6 |
| 20260510060318 | 72 | 68 | 1.7 | 1.7 | 0.00 | 0.00 | 0.00 | 24 | 1006.9 |
| 20260510055815 | 71 | 14 | 0.0 | 2.6 | 0.00 | 0.00 | 0.00 | 26 | 1006.8 |
| 20260510055314 | 70 | 54 | 0.9 | 1.7 | 0.00 | 0.00 | 0.00 | 27 | 1006.8 |
| 20260510054813 | 70 | 354 | 2.6 | 2.6 | 0.00 | 0.00 | 0.00 | 27 | 1006.6 |
| 20260510054310 | 69 | 30 | 1.7 | 1.7 | 0.00 | 0.00 | 0.00 | 29 | 1006.6 |
| 20260510053809 | 68 | 0 | 0.9 | 0.9 | 0.00 | 0.00 | 0.00 | 30 | 1006.6 |
| 20260510053300 | 68 | 23 | 1.7 | 2.6 | 0.00 | 0.00 | 0.00 | 30 | 1006.5 |
| 20260510052756 | 68 | 26 | 1.7 | 1.7 | 0.00 | 0.00 | 0.00 | 30 | 1006.6 |
| 20260510052252 | 68 | 69 | 0.0 | 1.7 | 0.00 | 0.00 | 0.00 | 30 | 1006.6 |
| 20260510051748 | 68 | 99 | 1.7 | 1.7 | 0.00 | 0.00 | 0.00 | 30 | 1006.6 |
| 20260510051245 | 68 | 188 | 0.0 | 3.5 | 0.00 | 0.00 | 0.00 | 31 | 1006.5 |
| 20260510050742 | 69 | 157 | 0.0 | 2.6 | 0.00 | 0.00 | 0.00 | 29 | 1006.4 |
| 20260510050239 | 70 | 139 | 1.7 | 2.6 | 0.00 | 0.00 | 0.00 | 28 | 1006.6 |
| 20260510045736 | 69 | 78 | 0.0 | 2.6 | 0.00 | 0.00 | 0.00 | 28 | 1006.6 |
| 20260510045232 | 70 | 20 | 0.0 | 1.7 | 0.00 | 0.00 | 0.00 | 27 | 1006.6 |
| 20260510044728 | 71 | 90 | 1.7 | 1.7 | 0.00 | 0.00 | 0.00 | 27 | 1006.6 |
| 20260510044227 | 73 | 74 | 0.0 | 2.6 | 0.00 | 0.00 | 0.00 | 25 | 1006.6 |
| 20260510043721 | 75 | 257 | 1.7 | 2.6 | 0.00 | 0.00 | 0.00 | 22 | 1006.6 |
| 20260510043219 | 76 | 233 | 2.6 | 6.1 | 0.00 | 0.00 | 0.00 | 21 | 1006.4 |
| 20260510042716 | 76 | 241 | 4.3 | 5.2 | 0.00 | 0.00 | 0.00 | 21 | 1006.2 |
| 20260510042212 | 76 | 219 | 3.5 | 5.2 | 0.00 | 0.00 | 0.00 | 22 | 1006.5 |
| 20260510041709 | 75 | 222 | 2.6 | 5.2 | 0.00 | 0.00 | 0.00 | 22 | 1006.3 |
| 20260510041207 | 75 | 236 | 3.5 | 5.2 | 0.00 | 0.00 | 0.00 | 22 | 1006.4 |
| 20260510040703 | 75 | 229 | 2.6 | 4.3 | 0.00 | 0.00 | 0.00 | 23 | 1006.4 |
| 20260510040200 | 75 | 233 | 5.2 | 5.2 | 0.00 | 0.00 | 0.00 | 23 | 1006.5 |
| 20260510035655 | 74 | 247 | 3.5 | 3.5 | 0.00 | 0.00 | 0.00 | 23 | 1006.4 |
| 20260510035151 | 74 | 256 | 2.6 | 4.3 | 0.00 | 0.00 | 0.00 | 23 | 1006.3 |
| 20260510034647 | 75 | 249 | 3.5 | 5.2 | 0.00 | 0.00 | 0.00 | 23 | 1006.1 |
| 20260510034145 | 75 | 235 | 2.6 | 4.3 | 0.00 | 0.00 | 0.00 | 23 | 1006.2 |
| 20260510033641 | 75 | 231 | 4.3 | 4.3 | 0.00 | 0.00 | 0.00 | 22 | 1005.9 |
| 20260510033139 | 76 | 261 | 4.3 | 4.3 | 0.00 | 0.00 | 0.00 | 22 | 1006.0 |
| 20260510032635 | 76 | 270 | 1.7 | 2.6 | 0.00 | 0.00 | 0.00 | 22 | 1005.9 |
| 20260510032131 | 76 | 237 | 2.6 | 3.5 | 0.00 | 0.00 | 0.00 | 23 | 1006.1 |
| 20260510031626 | 76 | 250 | 1.7 | 2.6 | 0.00 | 0.00 | 0.00 | 23 | 1006.0 |
| 20260510031123 | 76 | 248 | 1.7 | 2.6 | 0.00 | 0.00 | 0.00 | 23 | 1005.9 |
| 20260510030617 | 77 | 232 | 1.7 | 2.6 | 0.00 | 0.00 | 0.00 | 23 | 1006.0 |
| 20260510030115 | 77 | 228 | 0.0 | 2.6 | 0.00 | 0.00 | 0.00 | 22 | 1005.7 |
| 20260510025612 | 78 | 263 | 0.9 | 1.7 | 0.00 | 0.00 | 0.00 | 21 | 1005.6 |
| 20260510025109 | 78 | 264 | 0.0 | 1.7 | 0.00 | 0.00 | 0.00 | 22 | 1005.6 |
| 20260510024606 | 79 | 270 | 0.0 | 1.7 | 0.00 | 0.00 | 0.00 | 21 | 1005.7 |
| 20260510024103 | 80 | 253 | 0.0 | 1.7 | 0.00 | 0.00 | 0.00 | 20 | 1005.5 |
| 20260510023559 | 81 | 212 | 1.7 | 2.6 | 0.00 | 0.00 | 0.00 | 19 | 1005.3 |
| 20260510023056 | 81 | 220 | 1.7 | 2.6 | 0.00 | 0.00 | 0.00 | 19 | 1005.3 |
| 20260510022555 | 81 | 180 | 0.0 | 1.7 | 0.00 | 0.00 | 0.00 | 21 | 1005.3 |
| 20260510022050 | 81 | 216 | 0.0 | 1.7 | 0.00 | 0.00 | 0.00 | 20 | 1005.3 |
| 20260510021546 | 81 | 195 | 0.0 | 1.7 | 0.00 | 0.00 | 0.00 | 21 | 1005.2 |
| 20260510021044 | 82 | 140 | 1.7 | 1.7 | 0.00 | 0.00 | 0.00 | 22 | 1005.2 |
| 20260510020538 | 83 | 187 | 0.0 | 1.7 | 0.00 | 0.00 | 0.00 | 21 | 1005.0 |
| 20260510020034 | 83 | 186 | 2.6 | 2.6 | 0.00 | 0.00 | 0.00 | 21 | 1005.1 |
| 20260510015530 | 84 | 184 | 1.7 | 2.6 | 0.00 | 0.00 | 0.00 | 20 | 1004.9 |
| 20260510015026 | 84 | 180 | 0.9 | 1.7 | 0.00 | 0.00 | 0.00 | 20 | 1004.9 |
| 20260510014523 | 85 | 166 | 0.0 | 2.6 | 0.00 | 0.00 | 0.00 | 18 | 1004.9 |
| 20260510014020 | 87 | 194 | 0.9 | 2.6 | 0.00 | 0.00 | 0.00 | 16 | 1004.8 |
| 20260510013514 | 87 | 163 | 3.5 | 4.3 | 0.00 | 0.00 | 0.00 | 16 | 1004.8 |
| 20260510013010 | 87 | 164 | 2.6 | 2.6 | 0.00 | 0.00 | 0.00 | 16 | 1004.5 |
| 20260510012505 | 87 | 180 | 0.0 | 4.3 | 0.00 | 0.00 | 0.00 | 17 | 1004.5 |
| 20260510012001 | 88 | 176 | 5.2 | 5.2 | 0.00 | 0.00 | 0.00 | 16 | 1004.4 |
| 20260510011455 | 89 | 170 | 5.2 | 5.2 | 0.00 | 0.00 | 0.00 | 16 | 1004.4 |
| 20260510010951 | 89 | 154 | 2.6 | 4.3 | 0.00 | 0.00 | 0.00 | 15 | 1004.5 |
| 20260510010449 | 90 | 173 | 3.5 | 4.3 | 0.00 | 0.00 | 0.00 | 15 | 1004.7 |
| 20260510005946 | 90 | 154 | 2.6 | 3.5 | 0.00 | 0.00 | 0.00 | 15 | 1004.5 |
| 20260510005441 | 91 | 156 | 3.5 | 4.3 | 0.00 | 0.00 | 0.00 | 15 | 1004.5 |
| 20260510004939 | 91 | 160 | 0.9 | 3.5 | 0.00 | 0.00 | 0.00 | 14 | 1004.5 |
| 20260510004436 | 91 | 151 | 0.9 | 4.3 | 0.00 | 0.00 | 0.00 | 14 | 1004.8 |
| 20260510003934 | 92 | 213 | 1.7 | 5.2 | 0.00 | 0.00 | 0.00 | 14 | 1004.4 |
| 20260510003431 | 93 | 198 | 1.7 | 2.6 | 0.00 | 0.00 | 0.00 | 13 | 1004.7 |
| 20260510002930 | 93 | 157 | 2.6 | 6.1 | 0.00 | 0.00 | 0.00 | 13 | 1004.8 |
| 20260510002427 | 93 | 160 | 4.3 | 5.2 | 0.00 | 0.00 | 0.00 | 12 | 1004.8 |
| 20260510001924 | 95 | 169 | 0.0 | 2.6 | 0.00 | 0.00 | 0.00 | 12 | 1004.4 |
| 20260510001421 | 94 | 252 | 3.5 | 6.1 | 0.00 | 0.00 | 0.00 | 11 | 1004.7 |
| 20260510000919 | 95 | 169 | 2.6 | 3.5 | 0.00 | 0.00 | 0.00 | 11 | 1004.7 |
| 20260510000415 | 94 | 258 | 0.0 | 5.2 | 0.00 | 0.00 | 0.00 | 11 | 1004.7 |
| 20260509235912 | 95 | 229 | 2.6 | 4.3 | 0.00 | 0.00 | 0.00 | 11 | 1005.0 |
| 20260509235409 | 95 | 257 | 1.7 | 3.5 | 0.00 | 0.00 | 0.00 | 11 | 1005.0 |
| 20260509234904 | 95 | 257 | 0.9 | 6.1 | 0.00 | 0.00 | 0.00 | 11 | 1004.9 |
| 20260509234402 | 95 | 259 | 2.6 | 5.2 | 0.00 | 0.00 | 0.00 | 11 | 1005.0 |
| 20260509233859 | 96 | 306 | 1.7 | 5.2 | 0.00 | 0.00 | 0.00 | 11 | 1004.8 |
| 20260509233357 | 96 | 236 | 2.6 | 2.6 | 0.00 | 0.00 | 0.00 | 10 | 1005.1 |
| 20260509232852 | 96 | 166 | 2.6 | 3.5 | 0.00 | 0.00 | 0.00 | 10 | 1005.2 |
| 20260509232351 | 95 | 265 | 0.0 | 4.3 | 0.00 | 0.00 | 0.00 | 10 | 1005.2 |
| 20260509231846 | 96 | 173 | 2.6 | 4.3 | 0.00 | 0.00 | 0.00 | 10 | 1005.0 |
| 20260509231343 | 96 | 260 | 3.5 | 9.6 | 0.00 | 0.00 | 0.00 | 10 | 1005.0 |
| 20260509230841 | 96 | 334 | 0.0 | 4.3 | 0.00 | 0.00 | 0.00 | 10 | 1005.2 |
| 20260509230338 | 95 | 212 | 3.5 | 7.8 | 0.00 | 0.00 | 0.00 | 10 | 1005.2 |
| 20260509225833 | 99 | 290 | 3.5 | 3.5 | 0.00 | 0.00 | 0.00 | 10 | 1005.5 |
| 20260509225330 | 98 | 237 | 1.7 | 2.6 | 0.00 | 0.00 | 0.00 | 10 | 1005.3 |
| 20260509224826 | 96 | 247 | 1.7 | 6.1 | 0.00 | 0.00 | 0.00 | 10 | 1005.6 |
| 20260509224322 | 97 | 266 | 1.7 | 5.2 | 0.00 | 0.00 | 0.00 | 10 | 1005.4 |
| 20260509223819 | 96 | 276 | 5.2 | 8.7 | 0.00 | 0.00 | 0.00 | 10 | 1005.3 |
| 20260509223316 | 96 | 300 | 0.0 | 7.0 | 0.00 | 0.00 | 0.00 | 10 | 1005.2 |